RH
92 89 64 39 58 54 54 59 58 55 54 62 59 63 61 58 51 44 39 36 34 33 32 30 29 28 27 26 26 25 23 25 25 26 26 25 26 31 40 42 38 42 44 46
90 83 68 62 57 60 61 62 58 56 53 57 55 56 61 59 52 45 40 37 35 33 31 29 27 26 26 27 26 26 25 22 21 22 22 23 24 25 25 25 29 32 35 37
93 81 79 72 66 62 57 54 56 54 57 58 49 48 49 52 52 47 44 35 33 31 29 27 25 24 24 24 24 23 22 21 20 19 19 20 21 20 20 21 21 22 24 28
92 88 74 72 65 58 56 51 57 55 56 63 51 48 37 41 43 47 44 37 31 29 27 26 25 23 22 22 20 19 19 18 18 18 19 19 20 21 22 22 22 22 24 27
84 78 75 67 61 61 60 59 63 63 61 58 56 54 39 38 40 40 41 36 31 26 26 25 24 23 22 21 20 18 18 18 18 17 17 17 17 18 18 20 21 23 24 27
82 84 86 78 71 64 62 64 67 69 71 74 55 55 43 41 34 35 40 38 37 27 26 25 24 24 22 22 21 22 22 21 20 18 17 17 16 17 17 17 18 19 20 22
95 93 87 88 83 76 71 71 88 87 83 70 46 52 42 35 37 34 36 37 38 33 31 29 28 28 27 27 26 25 24 23 21 20 19 19 19 19 20 20 19 18 22 30
87 91 91 86 80 78 79 76 81 84 81 66 48 52 40 30 35 35 30 32 36 41 38 36 34 32 31 30 29 27 26 24 23 22 22 23 25 25 26 25 25 27 26 27
87 87 83 80 81 79 83 82 73 78 68 76 53 41 37 34 34 39 32 30 32 36 37 35 33 31 31 30 29 27 26 25 24 24 25 27 28 30 30 29 29 28 30 31
86 90 90 89 89 84 84 82 91 91 88 73 61 47 39 35 33 36 39 34 32 33 33 33 33 33 32 32 31 31 29 28 27 28 28 28 27 26 26 25 25 27 29 34
84 89 97 98 96 93 94 91 85 82 85 83 60 49 37 35 33 33 34 37 36 39 37 38 39 37 35 35 35 34 33 33 33 33 32 31 31 30 29 29 30 32 35 37
87 91 98 96 95 92 90 89 82 88 83 74 73 56 39 35 34 33 32 33 36 38 40 42 41 40 39 39 38 38 38 37 36 34 34 34 34 34 35 37 37 40 42 41
80 87 96 98 95 91 91 86 79 76 77 78 73 55 46 44 39 37 38 40 41 44 45 46 45 43 43 42 42 41 41 39 37 37 38 39 40 40 40 40 42 45 43 39
65 73 80 81 77 80 85 83 86 95 96 77 74 64 58 55 50 48 45 47 50 51 51 51 48 45 44 43 43 42 42 42 42 43 44 43 45 46 46 46 45 42 42 43
58 65 65 66 71 75 76 81 81 83 75 76 66 63 56 52 49 46 47 50 55 54 53 52 50 47 45 43 43 44 45 45 45 45 46 47 47 46 44 44 44 45 47 47
57 66 62 60 60 64 66 64 66 68 67 65 66 63 50 48 46 48 48 52 57 56 55 54 51 48 46 44 45 45 45 46 47 47 49 48 47 46 46 45 45 46 45 46
57 61 63 69 61 60 62 58 54 53 54 58 66 57 51 55 48 44 50 56 62 60 58 55 52 49 47 46 46 45 46 49 49 48 48 48 48 49 47 47 47 46 46 47
57 59 65 72 66 72 42 45 47 45 45 50 50 53 54 54 45 48 50 64 68 63 58 55 53 50 47 47 47 46 47 48 49 49 49 48 48 48 48 48 49 53 55 53
61 64 71 75 77 53 48 48 46 49 48 42 42 44 42 45 49 55 65 69 66 63 59 60 57 53 50 49 47 47 47 46 46 46 48 49 50 47 47 48 52 52 51 52
62 65 70 72 72 67 58 52 46 46 52 47 43 41 45 49 57 62 73 70 69 68 65 62 58 54 52 49 47 47 46 44 43 43 44 46 46 47 47 47 47 48 48 43
66 68 70 68 68 54 51 50 50 59 57 52 50 47 53 58 66 75 74 74 73 69 65 63 59 56 54 52 49 48 46 41 39 39 41 42 43 45 45 44 40 33 26 24
67 69 70 69 69 64 51 53 58 58 57 54 52 53 57 63 79 80 79 79 76 70 66 65 63 59 59 57 54 49 43 41 39 38 38 40 40 40 37 33 30 27 26 25
67 62 62 58 56 50 53 52 53 56 59 63 63 66 72 79 82 83 83 78 77 76 71 68 68 67 65 63 60 54 47 41 38 37 35 35 35 35 35 34 33 31 29 27
52 56 58 57 53 53 52 52 54 55 58 60 64 67 71 75 79 83 84 86 82 78 77 73 73 72 71 68 67 65 57 48 42 39 37 35 36 36 36 36 36 35 33 31
59 56 56 55 53 53 52 52 53 54 57 58 60 63 67 70 74 77 80 83 86 84 79 77 75 76 75 71 70 70 65 58 50 45 42 40 39 38 37 38 40 39 37 36
75 71 65 56 58 54 52 52 52 52 56 58 60 60 60 61 64 69 72 73 78 83 82 78 78 80 78 76 73 71 70 67 62 54 48 45 43 42 41 39 41 42 41 40